Time,TemperatureF,DewpointF,PressureIn,WindDirection,WindDirectionDegrees,WindSpeedMPH,WindSpeedGustMPH,Humidity,HourlyPrecipIn,Conditions,Clouds,dailyrainin,SolarRadiationWatts/m^2,SoftwareType,DateUTC
2013-04-10 00:00:00,72.1,64.9,29.85,SSE,160,3.0,7.0,78,0.00,CLR,,0.00,0.0,WeatherDisplay:10.37,2013-04-10 05:00:00,
2013-04-10 00:10:00,72.0,64.8,29.85,SSE,162,3.0,8.0,78,0.00,CLR,,0.00,0.0,WeatherDisplay:10.37,2013-04-10 05:10:00,
2013-04-10 00:20:00,71.7,64.8,29.85,SSE,152,5.0,9.0,79,0.00,CLR,,0.00,0.0,WeatherDisplay:10.37,2013-04-10 05:20:00,
2013-04-10 00:30:00,71.9,64.7,29.86,SSE,165,5.0,9.0,78,0.00,CLR,,0.00,0.0,WeatherDisplay:10.37,2013-04-10 05:30:00,
2013-04-10 00:40:00,71.9,65.0,29.86,South,173,3.0,8.0,79,0.00,CLR,,0.00,0.0,WeatherDisplay:10.37,2013-04-10 05:40:00,
2013-04-10 00:50:00,72.1,64.9,29.86,South,191,5.0,12.0,78,0.00,CLR,,0.00,0.0,WeatherDisplay:10.37,2013-04-10 05:50:00,
2013-04-10 01:00:00,72.4,65.2,29.86,South,185,5.0,10.0,78,0.00,CLR,,0.00,0.0,WeatherDisplay:10.37,2013-04-10 06:00:00,
2013-04-10 01:10:00,72.4,65.2,29.86,SSW,194,5.0,12.0,78,0.00,CLR,,0.00,0.0,WeatherDisplay:10.37,2013-04-10 06:10:00,
2013-04-10 01:20:00,72.3,65.0,29.86,South,186,7.0,10.0,78,0.00,CLR,,0.00,0.0,WeatherDisplay:10.37,2013-04-10 06:20:00,
2013-04-10 01:30:00,72.0,65.1,29.86,SSW,197,6.0,12.0,79,0.00,CLR,,0.00,0.0,WeatherDisplay:10.37,2013-04-10 06:30:00,
2013-04-10 01:40:00,71.9,65.0,29.85,South,177,5.0,10.0,79,0.00,CLR,,0.00,0.0,WeatherDisplay:10.37,2013-04-10 06:40:00,
2013-04-10 01:50:00,71.6,65.1,29.85,South,181,6.0,10.0,80,0.00,CLR,,0.00,0.0,WeatherDisplay:10.37,2013-04-10 06:50:00,
2013-04-10 02:00:00,71.6,65.1,29.85,South,186,7.0,12.0,80,0.00,CLR,,0.00,0.0,WeatherDisplay:10.37,2013-04-10 07:00:00,
2013-04-10 02:10:00,71.3,64.8,29.85,SSW,196,6.0,12.0,80,0.00,CLR,,0.00,0.0,WeatherDisplay:10.37,2013-04-10 07:10:00,
2013-04-10 02:20:00,71.1,65.0,29.85,South,191,6.0,12.0,81,0.00,CLR,,0.00,0.0,WeatherDisplay:10.37,2013-04-10 07:20:00,
2013-04-10 02:30:00,70.8,65.0,29.84,SSW,195,5.0,10.0,82,0.00,CLR,,0.00,0.0,WeatherDisplay:10.37,2013-04-10 07:30:00,
2013-04-10 02:40:00,70.6,64.9,29.84,SSW,193,5.0,10.0,82,0.00,CLR,,0.00,0.0,WeatherDisplay:10.37,2013-04-10 07:40:00,
2013-04-10 02:50:00,70.6,64.8,29.84,South,182,7.0,12.0,82,0.00,BKN,,0.00,0.0,WeatherDisplay:10.37,2013-04-10 07:50:00,
2013-04-10 03:00:00,70.5,64.7,29.84,South,191,5.0,12.0,82,0.00,BKN,,0.00,0.0,WeatherDisplay:10.37,2013-04-10 08:00:00,
2013-04-10 03:10:00,70.2,64.8,29.85,SSW,196,6.0,9.0,83,0.00,BKN,,0.00,0.0,WeatherDisplay:10.37,2013-04-10 08:10:00,
2013-04-10 03:20:00,70.0,64.6,29.85,South,177,5.0,10.0,83,0.00,BKN,,0.00,0.0,WeatherDisplay:10.37,2013-04-10 08:20:00,
2013-04-10 03:30:00,70.2,64.8,29.84,South,187,6.0,12.0,83,0.00,FEW,,0.00,0.0,WeatherDisplay:10.37,2013-04-10 08:30:00,
2013-04-10 03:40:00,70.1,64.7,29.84,SSW,193,6.0,9.0,83,0.00,FEW,,0.00,0.0,WeatherDisplay:10.37,2013-04-10 08:40:00,
2013-04-10 03:50:00,70.1,65.0,29.84,SSW,195,5.0,10.0,84,0.00,SCT,,0.00,0.0,WeatherDisplay:10.37,2013-04-10 08:50:00,
2013-04-10 04:00:00,69.9,64.9,29.84,SSW,194,7.0,14.0,84,0.00,SCT,,0.00,0.0,WeatherDisplay:10.37,2013-04-10 09:00:00,
2013-04-10 04:10:00,70.0,64.9,29.84,SSW,197,6.0,10.0,84,0.00,SCT,,0.00,0.0,WeatherDisplay:10.37,2013-04-10 09:10:00,
2013-04-10 04:20:00,70.2,65.1,29.84,SSW,194,5.0,10.0,84,0.00,BKN,,0.00,0.0,WeatherDisplay:10.37,2013-04-10 09:20:00,
2013-04-10 04:30:00,70.1,65.0,29.84,SSW,194,5.0,8.0,84,0.00,OVC,,0.00,0.0,WeatherDisplay:10.37,2013-04-10 09:30:00,
2013-04-10 04:40:00,69.8,64.8,29.84,SSW,200,5.0,8.0,84,0.00,OVC,,0.00,0.0,WeatherDisplay:10.37,2013-04-10 09:40:00,
2013-04-10 04:50:00,69.8,64.7,29.84,South,191,3.0,10.0,84,0.00,OVC,,0.00,0.0,WeatherDisplay:10.37,2013-04-10 09:50:00,
2013-04-10 05:00:00,69.9,64.5,29.84,South,185,3.0,9.0,83,0.00,OVC,,0.00,0.0,WeatherDisplay:10.37,2013-04-10 10:00:00,
2013-04-10 05:10:00,69.9,64.8,29.84,SSW,193,3.0,7.0,84,0.00,OVC,,0.00,0.0,WeatherDisplay:10.37,2013-04-10 10:10:00,
2013-04-10 05:20:00,70.2,64.8,29.84,SSE,164,5.0,9.0,83,0.00,OVC,,0.00,0.0,WeatherDisplay:10.37,2013-04-10 10:20:00,
2013-04-10 05:30:00,70.6,65.2,29.85,South,169,3.0,9.0,83,0.00,BKN,,0.00,0.0,WeatherDisplay:10.37,2013-04-10 10:30:00,
2013-04-10 05:40:00,70.8,65.0,29.85,SSW,195,5.0,10.0,82,0.00,BKN,,0.00,0.0,WeatherDisplay:10.37,2013-04-10 10:40:00,
2013-04-10 05:50:00,70.6,65.2,29.85,SSW,198,2.0,8.0,83,0.00,BKN,,0.00,0.0,WeatherDisplay:10.37,2013-04-10 10:50:00,
2013-04-10 06:00:00,70.3,64.9,29.86,SSW,199,3.0,6.0,83,0.00,BKN,,0.00,0.0,WeatherDisplay:10.37,2013-04-10 11:00:00,
2013-04-10 06:10:00,70.0,64.9,29.86,SSW,206,1.0,7.0,84,0.00,OVC,,0.00,0.0,WeatherDisplay:10.37,2013-04-10 11:10:00,
2013-04-10 06:20:00,69.7,64.6,29.87,SSW,213,3.0,4.0,84,0.00,OVC,,0.00,0.0,WeatherDisplay:10.37,2013-04-10 11:20:00,
2013-04-10 06:30:00,69.6,64.9,29.87,SSW,196,3.0,5.0,85,0.00,OVC,,0.00,0.0,WeatherDisplay:10.37,2013-04-10 11:30:00,
2013-04-10 06:40:00,69.2,64.5,29.87,SSW,193,2.0,5.0,85,0.00,OVC,,0.00,0.0,WeatherDisplay:10.37,2013-04-10 11:40:00,
2013-04-10 06:50:00,69.5,64.8,29.87,SSW,198,3.0,7.0,85,0.00,OVC,,0.00,0.0,WeatherDisplay:10.37,2013-04-10 11:50:00,
2013-04-10 07:00:00,70.0,65.0,29.88,South,189,3.0,9.0,84,0.00,OVC,,0.00,0.0,WeatherDisplay:10.37,2013-04-10 12:00:00,
2013-04-10 07:10:00,70.4,65.3,29.88,South,182,3.0,13.0,84,0.00,OVC,,0.00,0.0,WeatherDisplay:10.37,2013-04-10 12:10:00,
2013-04-10 07:20:00,70.4,65.4,29.88,South,172,3.0,6.0,84,0.00,OVC,,0.00,0.0,WeatherDisplay:10.37,2013-04-10 12:20:00,
2013-04-10 07:30:00,70.7,65.3,29.88,SE,145,3.0,8.0,83,0.00,OVC,,0.00,0.0,WeatherDisplay:10.37,2013-04-10 12:30:00,
2013-04-10 07:40:00,71.3,65.5,29.87,South,176,5.0,9.0,82,0.00,OVC,,0.00,0.0,WeatherDisplay:10.37,2013-04-10 12:40:00,
2013-04-10 07:50:00,71.7,65.6,29.87,SSE,150,3.0,9.0,81,0.00,OVC,,0.00,0.0,WeatherDisplay:10.37,2013-04-10 12:50:00,
2013-04-10 08:00:00,71.7,65.5,29.88,SSE,154,5.0,9.0,81,0.00,OVC,,0.00,0.0,WeatherDisplay:10.37,2013-04-10 13:00:00,
2013-04-10 08:10:00,71.6,65.5,29.88,SSE,157,7.0,10.0,81,0.00,OVC,,0.00,0.0,WeatherDisplay:10.37,2013-04-10 13:10:00,
2013-04-10 08:20:00,71.6,65.5,29.88,SSE,150,5.0,10.0,81,0.00,OVC,,0.00,0.0,WeatherDisplay:10.37,2013-04-10 13:20:00,
2013-04-10 08:30:00,71.5,65.4,29.88,SSE,164,5.0,12.0,81,0.00,OVC,,0.00,0.0,WeatherDisplay:10.37,2013-04-10 13:30:00,
2013-04-10 08:40:00,71.6,65.5,29.88,SSE,163,5.0,10.0,81,0.00,OVC,,0.00,0.0,WeatherDisplay:10.37,2013-04-10 13:40:00,
2013-04-10 08:50:00,71.7,65.6,29.89,South,178,3.0,9.0,81,0.00,BKN,,0.00,0.0,WeatherDisplay:10.37,2013-04-10 13:50:00,
2013-04-10 09:00:00,72.2,66.0,29.89,South,185,5.0,10.0,81,0.00,BKN,,0.00,0.0,WeatherDisplay:10.37,2013-04-10 14:00:00,
2013-04-10 09:10:00,73.4,66.5,29.89,South,177,5.0,12.0,79,0.00,BKN,,0.00,0.0,WeatherDisplay:10.37,2013-04-10 14:10:00,
2013-04-10 09:20:00,73.2,66.3,29.89,SSE,155,5.0,10.0,79,0.00,BKN,,0.00,0.0,WeatherDisplay:10.37,2013-04-10 14:20:00,
2013-04-10 09:30:00,73.5,66.6,29.89,South,189,5.0,12.0,79,0.00,OVC,,0.00,0.0,WeatherDisplay:10.37,2013-04-10 14:30:00,
2013-04-10 09:40:00,74.6,67.3,29.90,South,172,5.0,12.0,78,0.00,OVC,,0.00,0.0,WeatherDisplay:10.37,2013-04-10 14:40:00,
2013-04-10 09:50:00,74.7,66.6,29.90,South,188,7.0,16.0,76,0.00,BKN,,0.00,0.0,WeatherDisplay:10.37,2013-04-10 14:50:00,
2013-04-10 10:00:00,75.4,67.3,29.91,South,179,6.0,12.0,76,0.00,BKN,,0.00,0.0,WeatherDisplay:10.37,2013-04-10 15:00:00,
2013-04-10 10:10:00,75.0,66.9,29.91,South,170,6.0,12.0,76,0.00,BKN,,0.00,0.0,WeatherDisplay:10.37,2013-04-10 15:10:00,
2013-04-10 10:20:00,75.5,67.0,29.91,SSE,167,6.0,12.0,75,0.00,BKN,,0.00,0.0,WeatherDisplay:10.37,2013-04-10 15:20:00,
2013-04-10 10:30:00,75.5,66.6,29.91,South,189,10.0,18.0,74,0.00,BKN,,0.00,0.0,WeatherDisplay:10.37,2013-04-10 15:30:00,
2013-04-10 10:40:00,76.2,66.9,29.90,South,181,8.0,16.0,73,0.00,BKN,,0.00,0.0,WeatherDisplay:10.37,2013-04-10 15:40:00,
2013-04-10 10:50:00,76.3,66.6,29.90,South,177,8.0,14.0,72,0.00,FEW,,0.00,0.0,WeatherDisplay:10.37,2013-04-10 15:50:00,
2013-04-10 11:00:00,77.0,67.2,29.90,South,173,8.0,13.0,72,0.00,FEW,,0.00,0.0,WeatherDisplay:10.37,2013-04-10 16:00:00,
2013-04-10 11:10:00,77.8,66.8,29.90,SSE,167,8.0,16.0,69,0.00,FEW,,0.00,0.0,WeatherDisplay:10.37,2013-04-10 16:10:00,
2013-04-10 11:20:00,77.7,67.1,29.91,South,176,7.0,15.0,70,0.00,CLR,,0.00,0.0,WeatherDisplay:10.37,2013-04-10 16:20:00,
2013-04-10 11:30:00,79.2,68.9,29.90,South,173,6.0,13.0,71,0.00,CLR,,0.00,0.0,WeatherDisplay:10.37,2013-04-10 16:30:00,
2013-04-10 11:40:00,79.2,67.7,29.90,SSE,167,9.0,17.0,68,0.00,CLR,,0.00,0.0,WeatherDisplay:10.37,2013-04-10 16:40:00,
2013-04-10 11:50:00,79.9,68.0,29.89,South,180,7.0,13.0,67,0.00,CLR,,0.00,0.0,WeatherDisplay:10.37,2013-04-10 16:50:00,
2013-04-10 12:00:00,79.2,67.7,29.89,SSW,197,8.0,13.0,68,0.00,CLR,,0.00,0.0,WeatherDisplay:10.37,2013-04-10 17:00:00,
2013-04-10 12:10:00,79.6,67.7,29.88,South,184,8.0,14.0,67,0.00,FEW,,0.00,0.0,WeatherDisplay:10.37,2013-04-10 17:10:00,
2013-04-10 12:20:00,80.8,68.4,29.88,South,171,7.0,14.0,66,0.00,FEW,,0.00,0.0,WeatherDisplay:10.37,2013-04-10 17:20:00,
2013-04-10 12:30:00,81.2,68.3,29.88,South,187,6.0,14.0,65,0.00,FEW,,0.00,0.0,WeatherDisplay:10.37,2013-04-10 17:30:00,
2013-04-10 12:40:00,82.0,69.5,29.86,SSE,152,6.0,14.0,66,0.00,FEW,,0.00,0.0,WeatherDisplay:10.37,2013-04-10 17:40:00,
2013-04-10 12:50:00,82.1,68.3,29.86,SSE,168,7.0,16.0,63,0.00,CLR,,0.00,0.0,WeatherDisplay:10.37,2013-04-10 17:50:00,
2013-04-10 13:00:00,80.7,67.9,29.86,South,172,8.0,15.0,65,0.00,CLR,,0.00,0.0,WeatherDisplay:10.37,2013-04-10 18:00:00,
2013-04-10 13:10:00,80.8,68.3,29.85,SSE,157,7.0,16.0,66,0.00,FEW,,0.00,0.0,WeatherDisplay:10.37,2013-04-10 18:10:00,
2013-04-10 13:20:00,81.3,67.5,29.85,South,176,8.0,15.0,63,0.00,FEW,,0.00,0.0,WeatherDisplay:10.37,2013-04-10 18:20:00,
2013-04-10 13:30:00,81.4,67.6,29.84,South,176,13.0,17.0,63,0.00,FEW,,0.00,0.0,WeatherDisplay:10.37,2013-04-10 18:30:00,
2013-04-10 13:40:00,81.4,67.6,29.84,SSE,161,8.0,16.0,63,0.00,FEW,,0.00,0.0,WeatherDisplay:10.37,2013-04-10 18:40:00,
2013-04-10 13:50:00,81.7,67.4,29.84,SSE,167,8.0,13.0,62,0.00,BKN,,0.00,0.0,WeatherDisplay:10.37,2013-04-10 18:50:00,
2013-04-10 14:00:00,82.6,67.8,29.83,South,176,7.0,16.0,61,0.00,BKN,,0.00,0.0,WeatherDisplay:10.37,2013-04-10 19:00:00,
2013-04-10 14:10:00,81.8,67.1,29.83,SSE,167,7.0,16.0,61,0.00,OVC,,0.00,0.0,WeatherDisplay:10.37,2013-04-10 19:10:00,
2013-04-10 14:20:00,81.6,66.4,29.83,South,182,8.0,17.0,60,0.00,OVC,,0.00,0.0,WeatherDisplay:10.37,2013-04-10 19:20:00,
2013-04-10 14:30:00,81.9,67.6,29.82,South,187,6.0,13.0,62,0.00,OVC,,0.00,0.0,WeatherDisplay:10.37,2013-04-10 19:30:00,
2013-04-10 14:40:00,83.1,68.3,29.82,South,186,8.0,15.0,61,0.00,OVC,,0.00,0.0,WeatherDisplay:10.37,2013-04-10 19:40:00,
2013-04-10 14:50:00,82.6,67.8,29.82,South,171,7.0,15.0,61,0.00,SCT,,0.00,0.0,WeatherDisplay:10.37,2013-04-10 19:50:00,
2013-04-10 15:00:00,82.2,66.9,29.81,South,171,9.0,15.0,60,0.00,SCT,,0.00,0.0,WeatherDisplay:10.37,2013-04-10 20:00:00,
2013-04-10 15:10:00,83.1,67.2,29.80,South,170,8.0,17.0,59,0.00,BKN,,0.00,0.0,WeatherDisplay:10.37,2013-04-10 20:10:00,
2013-04-10 15:20:00,82.4,67.1,29.79,SSE,153,7.0,17.0,60,0.00,BKN,,0.00,0.0,WeatherDisplay:10.37,2013-04-10 20:20:00,
2013-04-10 15:30:00,82.3,66.6,29.79,SSE,150,9.0,22.0,59,0.00,BKN,,0.00,0.0,WeatherDisplay:10.37,2013-04-10 20:30:00,
2013-04-10 15:40:00,81.9,66.6,29.78,South,169,9.0,17.0,60,0.00,BKN,,0.00,0.0,WeatherDisplay:10.37,2013-04-10 20:40:00,
2013-04-10 15:50:00,83.3,67.5,29.77,SSE,152,7.0,14.0,59,0.00,SCT,,0.00,0.0,WeatherDisplay:10.37,2013-04-10 20:50:00,
2013-04-10 16:00:00,83.5,66.7,29.76,SSE,152,10.0,16.0,57,0.00,SCT,,0.00,0.0,WeatherDisplay:10.37,2013-04-10 21:00:00,
2013-04-10 16:10:00,83.6,66.7,29.76,South,171,9.0,18.0,57,0.00,BKN,,0.00,0.0,WeatherDisplay:10.37,2013-04-10 21:10:00,
2013-04-10 16:20:00,83.1,66.2,29.75,SSE,160,7.0,18.0,57,0.00,BKN,,0.00,0.0,WeatherDisplay:10.37,2013-04-10 21:20:00,
2013-04-10 16:30:00,83.5,66.7,29.75,SSE,160,7.0,14.0,57,0.00,FEW,,0.00,0.0,WeatherDisplay:10.37,2013-04-10 21:30:00,
2013-04-10 16:40:00,83.5,66.2,29.75,South,175,9.0,20.0,56,0.00,FEW,,0.00,0.0,WeatherDisplay:10.37,2013-04-10 21:40:00,
2013-04-10 16:50:00,83.2,65.4,29.74,South,175,9.0,17.0,55,0.00,CLR,,0.00,0.0,WeatherDisplay:10.37,2013-04-10 21:50:00,
2013-04-10 17:00:00,83.5,65.6,29.73,SSE,154,8.0,17.0,55,0.00,CLR,,0.00,0.0,WeatherDisplay:10.37,2013-04-10 22:00:00,
2013-04-10 17:10:00,83.8,66.4,29.73,SSE,166,6.0,14.0,56,0.00,CLR,,0.00,0.0,WeatherDisplay:10.37,2013-04-10 22:10:00,
2013-04-10 17:20:00,83.5,66.7,29.73,South,171,7.0,15.0,57,0.00,CLR,,0.00,0.0,WeatherDisplay:10.37,2013-04-10 22:20:00,
2013-04-10 17:30:00,82.3,65.1,29.72,SSE,157,7.0,15.0,56,0.00,BKN,,0.00,0.0,WeatherDisplay:10.37,2013-04-10 22:30:00,
2013-04-10 17:40:00,81.6,64.9,29.71,SSE,150,8.0,17.0,57,0.00,BKN,,0.00,0.0,WeatherDisplay:10.37,2013-04-10 22:40:00,
2013-04-10 17:50:00,81.0,64.8,29.70,SSE,154,6.0,16.0,58,0.00,FEW,,0.00,0.0,WeatherDisplay:10.37,2013-04-10 22:50:00,
2013-04-10 18:00:00,80.5,64.9,29.70,SSE,147,5.0,12.0,59,0.00,FEW,,0.00,0.0,WeatherDisplay:10.37,2013-04-10 23:00:00,
2013-04-10 18:10:00,80.1,64.5,29.70,SSE,157,6.0,12.0,59,0.00,CLR,,0.00,0.0,WeatherDisplay:10.37,2013-04-10 23:10:00,
2013-04-10 18:20:00,79.8,64.2,29.68,SSE,152,8.0,12.0,59,0.00,CLR,,0.00,0.0,WeatherDisplay:10.37,2013-04-10 23:20:00,
2013-04-10 18:30:00,79.6,64.0,29.67,SSE,163,7.0,13.0,59,0.00,CLR,,0.00,0.0,WeatherDisplay:10.37,2013-04-10 23:30:00,
2013-04-10 18:40:00,79.2,64.1,29.66,SSE,152,7.0,13.0,60,0.00,CLR,,0.00,0.0,WeatherDisplay:10.37,2013-04-10 23:40:00,
2013-04-10 18:50:00,79.0,63.9,29.66,SE,146,5.0,12.0,60,0.00,CLR,,0.00,0.0,WeatherDisplay:10.37,2013-04-10 23:50:00,
2013-04-10 19:00:00,79.0,63.9,29.67,SE,143,7.0,12.0,60,0.00,CLR,,0.00,0.0,WeatherDisplay:10.37,2013-04-11 00:00:00,
2013-04-10 19:10:00,78.5,63.9,29.67,SSE,153,5.0,10.0,61,0.00,CLR,,0.00,0.0,WeatherDisplay:10.37,2013-04-11 00:10:00,
2013-04-10 19:20:00,78.3,63.7,29.66,SSE,157,3.0,10.0,61,0.00,CLR,,0.00,0.0,WeatherDisplay:10.37,2013-04-11 00:20:00,
2013-04-10 19:30:00,78.3,63.3,29.65,SE,135,6.0,8.0,60,0.00,CLR,,0.00,0.0,WeatherDisplay:10.37,2013-04-11 00:30:00,
2013-04-10 19:40:00,78.5,63.0,29.65,SE,140,6.0,13.0,59,0.00,CLR,,0.00,0.0,WeatherDisplay:10.37,2013-04-11 00:40:00,
2013-04-10 19:50:00,78.6,63.1,29.65,SE,141,6.0,13.0,59,0.00,CLR,,0.00,0.0,WeatherDisplay:10.37,2013-04-11 00:50:00,
2013-04-10 20:00:00,78.3,62.8,29.64,SSE,156,6.0,12.0,59,0.00,CLR,,0.00,0.0,WeatherDisplay:10.37,2013-04-11 01:00:00,
2013-04-10 20:10:00,78.3,62.8,29.66,SSE,153,8.0,14.0,59,0.00,CLR,,0.00,0.0,WeatherDisplay:10.37,2013-04-11 01:10:00,
2013-04-10 20:20:00,78.4,62.9,29.66,SSE,155,6.0,12.0,59,0.00,CLR,,0.00,0.0,WeatherDisplay:10.37,2013-04-11 01:20:00,
2013-04-10 20:30:00,78.2,62.7,29.67,SSE,152,7.0,13.0,59,0.00,FEW,,0.00,0.0,WeatherDisplay:10.37,2013-04-11 01:30:00,
2013-04-10 20:40:00,78.0,62.5,29.68,SSE,152,5.0,12.0,59,0.00,FEW,,0.00,0.0,WeatherDisplay:10.37,2013-04-11 01:40:00,
2013-04-10 20:50:00,77.9,62.9,29.69,SSE,156,3.0,9.0,60,0.00,FEW,,0.00,0.0,WeatherDisplay:10.37,2013-04-11 01:50:00,
2013-04-10 21:00:00,77.7,62.7,29.68,SSE,155,8.0,13.0,60,0.00,FEW,,0.00,0.0,WeatherDisplay:10.37,2013-04-11 02:00:00,
2013-04-10 21:10:00,77.7,62.7,29.67,SE,140,5.0,9.0,60,0.00,FEW,,0.00,0.0,WeatherDisplay:10.37,2013-04-11 02:10:00,
2013-04-10 21:20:00,77.5,62.5,29.67,SSE,166,3.0,8.0,60,0.00,CLR,,0.00,0.0,WeatherDisplay:10.37,2013-04-11 02:20:00,
2013-04-10 21:30:00,77.7,62.7,29.68,SSE,160,7.0,13.0,60,0.00,CLR,,0.00,0.0,WeatherDisplay:10.37,2013-04-11 02:30:00,
2013-04-10 21:40:00,77.5,63.0,29.68,SSE,164,7.0,13.0,61,0.00,CLR,,0.00,0.0,WeatherDisplay:10.37,2013-04-11 02:40:00,
2013-04-10 21:50:00,77.4,62.9,29.68,SSE,157,6.0,9.0,61,0.00,CLR,,0.00,0.0,WeatherDisplay:10.37,2013-04-11 02:50:00,
2013-04-10 22:00:00,76.5,63.5,29.68,SSE,166,3.0,10.0,64,0.00,CLR,,0.00,0.0,WeatherDisplay:10.37,2013-04-11 03:00:00,
2013-04-10 22:10:00,75.8,63.2,29.68,South,180,6.0,8.0,65,0.00,FEW,,0.00,0.0,WeatherDisplay:10.37,2013-04-11 03:10:00,
2013-04-10 22:20:00,75.6,63.4,29.68,SSE,161,5.0,9.0,66,0.00,FEW,,0.00,0.0,WeatherDisplay:10.37,2013-04-11 03:20:00,
2013-04-10 22:30:00,75.5,63.3,29.67,SSE,152,5.0,8.0,66,0.00,BKN,,0.00,0.0,WeatherDisplay:10.37,2013-04-11 03:30:00,
2013-04-10 22:40:00,75.2,63.5,29.67,SSE,156,3.0,7.0,67,0.00,BKN,,0.00,0.0,WeatherDisplay:10.37,2013-04-11 03:40:00,
2013-04-10 22:50:00,73.7,64.1,29.68,SSE,162,2.0,7.0,72,0.01,RA,,0.01,0.0,WeatherDisplay:10.37,2013-04-11 03:50:00,
2013-04-10 23:00:00,73.2,64.0,29.67,SSE,152,3.0,5.0,73,0.00,BKN,,0.01,0.0,WeatherDisplay:10.37,2013-04-11 04:00:00,
2013-04-10 23:10:00,72.9,64.1,29.68,South,171,2.0,5.0,74,0.01,RA,,0.02,0.0,WeatherDisplay:10.37,2013-04-11 04:10:00,
2013-04-10 23:20:00,72.2,64.2,29.68,SSE,159,2.0,5.0,76,0.01,RA,,0.03,0.0,WeatherDisplay:10.37,2013-04-11 04:20:00,
2013-04-10 23:30:00,71.4,64.2,29.69,SSE,164,2.0,5.0,78,0.02,RA,,0.05,0.0,WeatherDisplay:10.37,2013-04-11 04:30:00,
2013-04-10 23:40:00,70.4,64.6,29.71,WSW,240,7.0,12.0,82,0.02,RA,,0.07,0.0,WeatherDisplay:10.37,2013-04-11 04:40:00,
2013-04-10 23:50:00,68.5,64.5,29.70,West,278,5.0,16.0,87,0.04,RA,,0.11,0.0,WeatherDisplay:10.37,2013-04-11 04:50:00,